timestamp,gas_concentrations,,corrected_fluxes_and_quality_flags,,,,,,,,,,storage_terms,,,turbulence,,,footprint,,
ISOdate,CO2_1_1_1,H2O_1_1_1,Tau_1_1_1,QcTau_1_1_1,H_1_1_1,QcH_1_1_1,LE_1_1_1, QcLE_1_1_1,Fc_1_1_1, QcFc_1_1_1,E_1_1_1, QcE_1_1_1,Sa_1_1_1,Sw_1_1_1,Sc_1_1_1,ustar_1_1_1,MO_length_1_1_1,ZL_1_1_1,Fetchmax_1_1_1,Fetch70_1_1_1,Fetch90_1_1_1
yyyymmddHHMM,[µmol+1mol_a-1],[mmol+1mol_a-1],[kg+1m-1s-2],[#],[W+1m-2],[#],[W+1m-2],[#],[µmol+1s-1m-2],[#],[mmol+1s-1m-2],[#],[W+1m-2],[W+1m-2],[µmol+1s-1m-2],[m+1s-1],[m],[#],[m],[m],[m]
201301120330,454.10241617551242,9.7863433303642307,1.4164484485116426,0,-59.302357692734965,0,-57.358378907620398,1,-53.386110847001206,0,-1.2801453630287718,1,-9999.,-9999.,-9999.,1.1020945095884012,1879.3371748315597,1.14934138957454267E-002,120.48902697666392,220.29236931753340,330.03811176315071
201301120500,446.25004078070458,9.5682333638074066,1.2683697211813014,0,-59.878403805501009,0,-57.023378575121818,0,-9.5712380548450788,0,-1.2726844725186557,0,-9999.,-9999.,-9999.,1.0433558143493469,1578.1456637931531,1.36869494974775057E-002,113.34178125050065,207.22492463299741,310.46069842552760
201301120530,426.45460134461013,9.1800990720796865,1.4463901165987219,0,-75.474107974227820,0,-222.13537995943582,0,-29.314295657347902,0,-4.9569461684855227,0,-3.9474185047175423,-13.663137897916826,-15.549987767118205,1.1137284864747532,1522.7890701165086,1.41844989722361130E-002,115.60950198114590,211.37104138104854,316.67233683549887
201301120600,496.17088340235352,8.5790534141557266,1.6996057846823776,0,68.148030235728839,1,-796.04178125853821,0,-210.49945093849911,0,-17.749440381085293,0,-19.314492099083630,-21.250104864444957,54.958723086602234,1.2050149419917942,-2136.6611097524260,-1.01092306596542048E-002,103.83362244809248,189.84097787047995,284.41637840542529
201301120630,464.44994387776228,7.7000261537296408,1.7509637127425222,0,-75.241993790052049,0,-1.7021423932568076,2,10.627582246203261,1,-3.79119485611721513E-002,2,-26.179209118123115,-31.263347317794530,-25.128084964686987,1.2199135015324905,2008.6613104588650,1.07534305995397646E-002,110.13442100642271,201.36084717173918,301.67524181374250
201301120700,454.49871368208233,7.3048367760282726,1.3910437007494161,0,-105.99625057574440,1,47.403279546090026,1,-24.182503169848850,1,1.0552113026037100,1,-13.968990448716314,-14.101217626086990,-7.9042227486739707,1.0857848727465413,1005.6486974452993,2.14786734720301270E-002,108.64282091441504,198.63372648209943,297.58951807420812
201301120730,397.49606392611366,6.8466528699999145,2.5067617800872291,0,-108.88828956427037,1,21.783841222633541,2,-48.297966712288044,2,0.48465301759678653,2,-13.193261342022485,-16.402262719015454,-45.399956425342133,1.4554698477453272,2358.8458828697235,9.15702045515660520E-003,111.71100014159754,204.24333665496420,305.99373631796868
201301120800,389.69316500657868,6.4322832393070453,2.1995675085858584,0,-59.984092361959071,0,66.029874472693024,0,1.0946285301153260,0,1.4679623117142222,0,-18.187035312656981,-14.898951214418789,-6.2373224292296561,1.3607874897189705,3501.2345936083566,6.16925242296864716E-003,114.51143551147126,209.36342566414498,313.66456265609548
201301120830,390.23494144187578,5.8416504056282603,2.2773592200924462,0,-78.911722673083148,1,50.835761400406398,1,1.3803097441548409,1,1.1291529247282792,1,-22.194784690885669,-21.348399779732524,0.43496196647715729,1.3814791707418173,2786.1625106992587,7.75259875080973933E-003,111.26383820517523,203.42578202019928,304.76889049713094
201301120900,390.90517381907421,5.0179311784447425,2.4257128708514553,0,24.423664777998827,0,87.779280124714376,0,-0.75520082808055844,0,1.9475857271260968,0,-27.342782296487119,-29.956889566335374,0.54081345378804124,1.4219523310230293,-9820.6171972052452,-2.19945443002777250E-003,107.77115956701873,197.04005153693086,295.20190260074827
201301120930,390.63977523587221,4.6821001840697729,2.1382933656916361,0,35.944016853248250,0,63.218371290739299,0,-0.97716665579183304,0,1.4015603036749449,0,-19.274951982645515,-12.266223275222421,-0.21491027309918112,1.3326101398625978,-5494.3423573888385,-3.93131672454886949E-003,105.40677637481740,192.71720498024433,288.72549073305356
201301121000,390.24098898015768,4.6154824944570549,1.9726587604170620,0,67.204245423309686,0,28.981319192172169,1,-0.67881044545896607,0,0.64218960746108122,1,-12.855362716726059,-2.4415036223893178,-0.32385686765122057,1.2780939990711815,-2594.1339708020846,-8.32647821705270741E-003,110.43673265658764,201.91356928559622,302.50332025945653
201301121030,389.57749210965676,4.3173330091465001,2.3580228072124174,0,47.362118538409717,1,29.604001149490134,2,-1.3067050776721496,1,0.65547033413809075,2,-19.804000279137949,-10.980248873904893,-0.54102785684923616,1.3944481864146150,-4783.6516084361620,-4.51537899664505946E-003,113.49561373986266,207.50617948590727,310.88206944653098
201301121100,388.99998648069669,3.9600868746780540,1.5092354624449020,0,59.610642768366787,0,42.111513327490421,0,-1.4462232350255571,0,0.93179346823129983,0,-16.475085000294346,-13.208018259555754,-0.47243836431948527,1.1137133067309770,-1937.1508023088306,-1.11503967446703808E-002,110.20033881415779,201.48136594768539,301.85580090150631
201301121130,388.60713616866298,3.6835760574942404,1.8599862750049678,0,102.21985835410428,0,41.952113184573150,0,-1.9612367043040075,0,0.92753953671193179,0,-19.837095796764409,-10.269625543490640,-0.32258797482340085,1.2339881030902511,-1537.2770669918643,-1.40508178153381080E-002,103.32096326925273,188.90367338730189,283.01212549038524
201301121200,388.08945859994685,3.5546908163866284,1.1540102003109602,0,74.975980103185250,0,31.169393534760683,0,-1.2900906484112253,0,0.68880227511749814,0,-12.426512064723944,-4.8033028031107783,-0.42634614962624406,0.97053089806167681,-1020.3910837928788,-2.11683543134373528E-002,107.78486755134311,197.06511410421322,295.23945089353498
201301121230,387.93086564531507,3.4052133733702195,1.0159978025540521,0,111.13662499485270,0,40.987742297444868,0,-1.3573156303921019,0,0.90528064818885712,0,-13.907272204674131,-5.5873606107390623,-0.13093150853079336,0.90951527095114282,-566.63929751387832,-3.81194881731106300E-002,94.251818296801375,172.32238392222513,258.17033236515880
201301121300,387.49357539693546,3.2921551292818911,1.2362701243729401,0,71.901762445369840,0,21.520353543879263,0,-1.2653991354011209,0,0.47516797492871282,0,-7.7323877701601935,-4.2346633674929777,-0.36164645253961814,1.0023835607397085,-1172.8800502565518,-1.84162054723970188E-002,105.14696842758650,192.24219319121141,288.01383651460134
201301121330,387.34216973591623,3.2323402380698689,0.96819863450810018,0,59.715376514504456,0,22.340341641991397,0,-1.1908776940433170,0,0.49322721252887392,0,-2.3870530166015689,-2.2427938995431749,-0.12533702494841401,0.88663146197171361,-977.72600203131424,-2.20920789210106369E-002,104.79333552462465,191.59563945916753,287.04518120648396
201301121400,387.43395675902264,3.2238234090260205,0.82569537345519406,0,64.874506910098205,0,23.289981015775137,0,-0.75733854272253343,0,0.51416995882735483,0,-1.1583003752981684,-0.31961821465233387,7.60453110047693837E-002,0.81845194845599034,-708.23216260100594,-3.04984737217712486E-002,107.88334901862142,197.24516963545099,295.50920688974276
201301121430,387.39675988733256,3.1015318817747390,1.1137141280815956,0,72.820091475672569,0,33.265941081425211,0,-0.64901850583013232,0,0.73419937068477159,0,-7.2873042940272326,-4.6006888714276570,-3.08849644816429868E-002,0.94947887271363784,-985.81057445184410,-2.19109031286366489E-002,106.21880302242626,194.20184867468944,290.94975752483452
201301121500,387.26658534243143,2.9879047981412294,1.2180808698599563,0,41.656574729412306,0,25.368451770792333,0,-0.48455478688243359,0,0.55979289875414273,0,-4.7788728239643801,-4.2815705555689227,-0.10823824321582173,0.99224786496541473,-1967.7335517611803,-1.09770959491275414E-002,112.30639639449417,205.33191089715459,307.62461889696834
201301121530,387.23648780506255,2.9237646842000613,1.1668682947127653,0,39.899076582383557,0,24.353524431354948,0,-0.20991115772716240,0,0.53723431809579136,0,-7.7950599757355929,-2.4217366643638525,-2.50685998686193019E-002,0.97032123216206334,-1921.8759028236116,-1.12390191105811652E-002,117.86926435407071,215.50260771299867,322.86217607071791
201301121600,387.16785706355074,2.7958767498849411,0.75033740334245058,0,62.932933123476879,0,26.324805814312672,0,-0.82640442992994201,0,0.58039508053844369,0,-14.472377406204592,-4.8444072335859056,-5.73176411262439692E-002,0.77702886035384955,-625.90259585695003,-3.45101620331619147E-002,95.525914589135013,174.65183829678176,261.66027950040842
201301121630,387.00631997960443,2.7044577788484991,1.1064148926154567,0,34.384871730824308,0,20.046486672580013,0,-0.38800770172329879,0,0.44176653035969793,0,-12.165403067864673,-3.4726637670771670,-0.13522381533398103,0.94244210241202564,-2044.5677979428147,-1.05645799673326074E-002,107.15266867067558,195.90925292086152,293.50776021538962
201301121700,386.90064199463728,2.6546711270901291,0.92841346709149308,0,30.651715248462317,0,19.178867716819163,0,-0.15922432012595822,0,0.42249562072860958,0,-9.2781234022488785,-1.8947421433259859,-8.85973978220383068E-002,0.86264984484227958,-1759.0281126356531,-1.22795081243104627E-002,111.65822720875924,204.14685090267210,305.84918307902910
201301121730,386.90713950148807,2.5955819731888705,0.70878159410738584,0,21.194706031204703,0,14.547436823678929,0,-0.53108700001627862,0,0.32038910378527347,0,-6.4641856814762537,-2.2529074957393842,5.45599033715242140E-003,0.75313007352264272,-1693.4995551254774,-1.27546534834487042E-002,106.48665464695215,194.69156687121688,291.68344462157182
201301121800,387.08313314947463,2.5376753373203460,0.67755415916787076,0,24.494488625941369,0,14.733839448643220,0,3.38047725805252774E-002,0,0.32441912033382431,0,-6.0446933102726685,-2.2129493719350131,0.14809167520632763,0.73557611676477863,-1366.3773963816070,-1.58082240361999311E-002,109.97385853348483,201.06728776243446,301.23543632507585
201301121830,387.10535300152657,2.5298800665808292,0.39882990536442542,0,20.665973504916909,0,14.327825132128869,0,6.38248637765389537E-002,0,0.31538423422699907,0,-7.8630530904987115,-0.29849161764589521,1.87284487244592998E-002,0.56387823750235122,-729.79030770197926,-2.95975429819228045E-002,103.45529050501710,189.14926641575366,283.38006859991526
201301121900,387.23678873976110,2.5876031552007932,0.46091194069142827,0,9.7539262600868319,0,18.918136081399421,0,-2.82139618451823226E-002,0,0.41627723897242574,0,-9.3591015872724022,2.2146421020808851,0.11096136227039928,0.60569831559024023,-1916.6436920101244,-1.12697003047793932E-002,109.31672593566543,199.86583979192793,299.43544833277235
201301121930,386.58622600870189,2.5070955988366697,0.49490194048438535,0,16.529849631468810,0,34.718000815159201,0,0.33580940998722036,0,0.76368077478023932,0,-8.8798512085076222,-3.0942468712317557,-0.55000247581368122,0.62717937952143865,-1255.6482812673264,-1.72022693952156025E-002,108.75613535026336,198.84090141061588,297.89990386934062
201301122000,386.43441342945840,2.3211184546801800,0.45400914744309062,0,11.947052111154056,0,22.420613573955681,0,-4.98804731998754303E-002,0,0.49305386110643928,0,-6.6648871990488665,-7.1597080693673973,-0.12852581594479631,0.60026861464887005,-1523.4893526179408,-1.41779789684009887E-002,109.87372336969692,200.88420874655768,300.96115059792783
201301122030,386.23153908564359,2.2319859251071055,0.33245027243446257,0,13.715811378582265,0,11.121887759685077,0,4.61338083290158130E-002,1,0.24452753491906956,0,-5.9066656094586136,-3.4357570897797749,-0.17193433347273177,0.51338469986221025,-830.24260680672728,-2.60164918337276799E-002,103.45441867444794,189.14767243141713,283.37768052091712
201301122100,386.15386623920978,2.1985770506427511,0.17315590040863238,0,4.6486056320477953,0,3.3492692488927789,1,0.28366973797430056,2,7.36298286291571513E-002,1,-2.7573496980588619,-1.2886214140637309,-6.58622325331023467E-002,0.37040735695456067,-920.12118670852954,-2.34751686104173150E-002,84.670818922803903,154.80526136353365,231.92649073458040
201301122130,386.33308612104634,2.2609050902701959,0.29041975342510379,0,7.4083376997953669,0,6.0582367249118301,0,0.30163519499635211,1,0.13317931701121477,0,-0.79886280507648044,2.4055226120737951,0.15205570069921062,0.47957276130691873,-1253.4749883071486,-1.72320949372682559E-002,114.07441149943917,208.56440638849051,312.46748618078982
201301122200,386.63714554092928,2.3334732006357508,0.27504444846842613,0,8.1152839721917580,1,18.816952276632804,1,2.67552443812505425E-002,0,0.41357610095709130,1,-5.1196267973569451,2.8041301143575210,0.25823610385399653,0.46647443625874696,-1053.2424230708305,-2.05080991107660718E-002,117.71440493490918,215.21947530489285,322.43799212989558
201301122230,386.49762387210126,2.2100735233011735,0.27561480785392939,0,8.4502595547135311,0,9.5526200261210725,0,0.24358376151051875,1,0.20992963954800181,0,-3.3326667080022268,-4.7719283936227752,-0.11856945213708094,0.46680039280740254,-1013.6755093420902,-2.13085941220175420E-002,111.66637026940627,204.16173901463088,305.87148818371253
201301122300,386.45527082289442,2.1505535228879338,0.27799861949831639,0,3.4884745340130916,2,3.2872817195531945,2,-4.50912561443959914E-002,0,7.22308002341411348E-002,2,-3.9947007967001613,-2.3032523121510340,-3.60121271439229826E-002,0.46868375118888050,-2485.1389297763490,-8.69166698939600156E-003,103.62071536158624,189.45171581311405,283.83319291065720
201301122330,386.20552063326704,2.0756769818426668,0.47024152608305714,0,8.4998434389308493,1,7.8016837781283268,0,0.10890436296233863,1,0.17138954692965080,0,-5.4453860342536258,-2.9015096528718063,-0.21260822418552378,0.60919712196114884,-2240.3090079534209,-9.64152709439495929E-003,120.17964602327739,219.72672226274861,329.19066940069433
201301130000,386.12197017780750,2.0566227289996171,0.23605111198454956,0,4.4571675169020937,1,4.0923133075731961,0,-5.61962332817531884E-002,0,8.98848228344190925E-002,0,-4.7803027455217411,-0.73915388707622909,-7.11884035731049497E-002,0.43142540358390802,-1517.5724034217519,-1.42332582954838409E-002,98.455105660851160,180.00733379345542,269.68378765347796
